N80135 CYXU-CYKF

Flight info

Callsign N80135
Flight time 0h 13m
Altitude 7500
Route CYXU/27 TETOS
Aircraft BE36/L-BDFGLORY/S

Departure

Time 2026-05-03 20:15
Airport London International Airport (CYXU)

Arrival

Time 2026-05-03 20:28
Airport Region of Waterloo International Airport (CYKF)
Time Latitude Longitude Altitude Speed Heading
2026-05-03 20:15 43.19937 -80.82996 7513 ft 175 kts 52°
2026-05-03 20:15 43.20548 -80.81582 7512 ft 174 kts 52°
2026-05-03 20:15 43.21176 -80.80141 7515 ft 173 kts 51°
2026-05-03 20:15 43.21790 -80.78727 7513 ft 172 kts 51°
2026-05-03 20:16 43.22400 -80.77315 7513 ft 172 kts 52°
2026-05-03 20:16 43.23001 -80.75919 7513 ft 173 kts 52°
2026-05-03 20:16 43.23612 -80.74505 7513 ft 172 kts 52°
2026-05-03 20:16 43.24224 -80.73098 7514 ft 172 kts 51°
2026-05-03 20:17 43.24838 -80.71686 7512 ft 173 kts 51°
2026-05-03 20:17 43.25458 -80.70249 7509 ft 173 kts 51°
2026-05-03 20:17 43.26056 -80.68851 7507 ft 172 kts 52°
2026-05-03 20:17 43.26670 -80.67420 7508 ft 172 kts 52°
2026-05-03 20:18 43.27273 -80.66029 7505 ft 171 kts 51°
2026-05-03 20:18 43.27878 -80.64625 7506 ft 171 kts 51°
2026-05-03 20:18 43.28480 -80.63220 7504 ft 171 kts 52°
2026-05-03 20:18 43.29080 -80.61819 7504 ft 171 kts 51°
2026-05-03 20:19 43.29680 -80.60412 7499 ft 171 kts 52°
2026-05-03 20:19 43.30278 -80.59017 7498 ft 169 kts 51°
2026-05-03 20:19 43.30865 -80.57635 7498 ft 167 kts 51°
2026-05-03 20:19 43.31441 -80.56259 7497 ft 165 kts 51°
2026-05-03 20:20 43.32011 -80.54894 7494 ft 165 kts 51°
2026-05-03 20:20 43.32574 -80.53532 7496 ft 163 kts 52°
2026-05-03 20:20 43.33145 -80.52163 7328 ft 174 kts 51°
2026-05-03 20:20 43.33826 -80.50610 6840 ft 203 kts 52°
2026-05-03 20:21 43.34574 -80.48945 6368 ft 200 kts 52°
2026-05-03 20:21 43.35283 -80.47365 5847 ft 190 kts 52°
2026-05-03 20:21 43.35963 -80.45845 5336 ft 184 kts 52°
2026-05-03 20:21 43.36635 -80.44364 4823 ft 181 kts 52°
2026-05-03 20:22 43.37296 -80.42926 4320 ft 180 kts 52°
2026-05-03 20:22 43.37972 -80.41484 3807 ft 179 kts 52°
2026-05-03 20:22 43.38630 -80.40087 3497 ft 163 kts 51°
2026-05-03 20:22 43.39177 -80.38882 3480 ft 134 kts 52°
2026-05-03 20:23 43.39621 -80.37865 3385 ft 118 kts 51°
2026-05-03 20:23 43.40047 -80.36893 3240 ft 116 kts 51°
2026-05-03 20:23 43.40509 -80.35913 3392 ft 132 kts 50°
2026-05-03 20:23 43.41171 -80.34917 3397 ft 157 kts 34°
2026-05-03 20:24 43.41948 -80.33853 3282 ft 140 kts 38°
2026-05-03 20:24 43.42534 -80.32969 3147 ft 117 kts 41°
2026-05-03 20:24 43.43020 -80.32090 2931 ft 115 kts 44°
2026-05-03 20:24 43.43475 -80.31215 2825 ft 110 kts 50°
2026-05-03 20:25 43.43873 -80.30314 2704 ft 106 kts 39°
2026-05-03 20:25 43.44455 -80.29849 2576 ft 90 kts 353°
2026-05-03 20:25 43.45069 -80.29849 2450 ft 91 kts 335°
2026-05-03 20:25 43.45648 -80.30078 2417 ft 87 kts 320°
2026-05-03 20:26 43.46137 -80.30534 2313 ft 87 kts 305°
2026-05-03 20:26 43.46606 -80.31014 2277 ft 85 kts 308°
2026-05-03 20:26 43.47078 -80.31518 2175 ft 84 kts 305°
2026-05-03 20:26 43.47351 -80.32167 2159 ft 73 kts 270°
2026-05-03 20:27 43.47259 -80.32852 2101 ft 76 kts 245°
2026-05-03 20:27 43.47168 -80.33569 2010 ft 83 kts 272°
2026-05-03 20:27 43.47150 -80.34367 1777 ft 81 kts 262°
2026-05-03 20:27 43.47008 -80.35139 1659 ft 84 kts 254°
2026-05-03 20:28 43.46822 -80.35871 1435 ft 82 kts 250°
2026-05-03 20:28 43.46607 -80.36538 1149 ft 75 kts 250°
2026-05-03 20:28 43.46421 -80.37121 1048 ft 49 kts 250°
2026-05-03 20:28 43.46322 -80.37438 1044 ft 31 kts 245°
2026-05-03 20:29 43.46237 -80.37665 1041 ft 21 kts 243°